Welcome to the New NWS' Forecast!
Most changes are behind the scenes, but click here for differences you might notice.

Regional Weather Roundup (RWR)

Issued by National Weather Service (NWS)

                            
000
ASUS46 KSEW 181910
RWRWA 

WASHINGTON REGIONAL WEATHER ROUNDUP
NATIONAL WEATHER SERVICE SEATTLE WA
1200 PM PDT TUE SEP 18 2018

NOTE:"FAIR" INDICATES FEW OR NO CLOUDS BELOW 12,000 FEET WITH NO 
SIGNIFICANT WEATHER AND/OR OBSTRUCTIONS TO VISIBILITY.

WAZ507-509-555>559-182000-
SEATTLE, TACOMA, EVERETT, AND VICINITY
  
CITY           SKY/WX    TMP DP  RH WIND       PRES   REMARKS
EVERETT        PTSUNNY   56  48  74 NW8       30.14S                  
BOEING FIELD   MOSUNNY   60  47  61 E5        30.13F                  
RENTON         PTSUNNY   59  48  67 NW8       30.13S                  
SEATAC AIRPORT MOSUNNY   59  47  64 CALM      30.13F                  
JBLM-MCCHORD   NOT AVBL                                               
PUYALLUP       FAIR      61  50  67 VRB3      30.12F                  
BREMERTON      SUNNY     60  47  61 VRB6      30.13F                  
JBLM-FT LEWIS  NOT AVBL                                               
TACOMA NARROWS MOSUNNY   57  47  69 N5        30.13F                  
$$
 
WAZ001-503-506-510-514-515-182000-
NORTH INTERIOR
  
CITY           SKY/WX    TMP DP  RH WIND       PRES   REMARKS
BELLINGHAM     MOSUNNY   59  47  64 W5        30.13F                  
FRIDAY HARBOR  SUNNY     61  47  59 N7        30.14F                  
EASTSOUND      SUNNY     57  52  82 VRB6      30.13F                  
PORT ANGELES   SUNNY     59  46  62 SE7       30.15S                  
EDIZ HOOK      FAIR      58  49  74 E3        30.15S                  
PORT TOWNSEND  FAIR      57  48  72 N9        30.14S                  
NAS WHIDBEY    MOSUNNY   60  49  66 W7        30.18S                  
ARLINGTON      MOSUNNY   59  49  69 NW7       30.13F                  
BURLINGTON     MOSUNNY   59  50  72 VRB7      30.13F                  
$$
 
WAZ020-022-039-040-504-511-512-182000-
SOUTHWEST INTERIOR
  
CITY           SKY/WX    TMP DP  RH WIND       PRES   REMARKS
SHELTON        SUNNY     62  46  55 CALM      30.11F                  
OLYMPIA        MOSUNNY   60  47  61 VRB7      30.13F                  
CHEHALIS       FAIR      61  50  67 NW8       30.12F                  
KELSO          SUNNY     61  47  59 N8        30.12F                  
VANCOUVER      SUNNY     60  50  69 S6        30.10F                  
SCAPPOOSE, OR  SUNNY     62  47  57 E9        30.09F                  
PORTLAND, OR   MOSUNNY   60  49  66 CALM      30.10F                  
$$
 
WAZ021-516-517-182000-
WASHINGTON COAST
  
CITY           SKY/WX    TMP DP  RH WIND       PRES   REMARKS
FORKS          SUNNY     60  48  64 VRB5      30.13S                  
HOQUIAM        SUNNY     59  47  64 S3        30.14S                  
ASTORIA, OR    SUNNY     61  48  62 N7        30.12F                  
$$
 
WAZ019-023-024-040-567>569-182000-
CASCADE MOUNTAINS AND COLUMBIA GORGE
  
CITY           SKY/WX    TMP DP  RH WIND       PRES   REMARKS
STAMPEDE PASS  SUNNY     52  41  66 VRB5      30.09F                  
TROUTDALE, OR  SUNNY     59  49  69 VRB3      30.10S                  
HOOD RIVER, OR CLEAR     63  48  59 SE3       30.06F                  
THE DALLES, OR SUNNY     68  47  46 VRB3      30.04F                  
$$

WAZ026-027-041>044-520-521-182000-
EAST SLOPES
  
CITY           SKY/WX    TMP DP  RH WIND       PRES   REMARKS
OMAK           SUNNY     66  43  43 N18       30.05F                  
WENATCHEE      SUNNY     63  40  42 CALM      30.05F                  
ELLENSBURG     SUNNY     65  41  41 CALM      30.06F                  
YAKIMA         SUNNY     67  39  35 VRB3      30.05F                  
SUNNYSIDE ARPT CLEAR     62  45  53 CALM      30.06S                  
YAKIMA TC      NOT AVBL                                               
$$

WAZ028-034-035-182000-
COLUMBIA BASIN
  
CITY           SKY/WX    TMP DP  RH WIND       PRES   REMARKS
EPHRATA        SUNNY     67  33  28 CALM      30.04F                  
MOSES LAKE     SUNNY     67  34  29 CALM      30.05F                  
PASCO          SUNNY     67  42  40 VRB5      30.06F                  
RICHLAND ARPT  CLEAR     67  41  38 CALM      30.05F                  
HERMISTON, OR  SUNNY     66  41  40 CALM      30.04F                  
$$

WAZ036>038-182000-
NORTHEAST WASHINGTON
  
CITY           SKY/WX    TMP DP  RH WIND       PRES   REMARKS
SPOKANE GEIGER MOSUNNY   62  35  36 N5        30.05F                  
SPOKANE FELTS  SUNNY     62  39  42 VRB3      30.05F                  
FAIRCHILD AFB  NOT AVBL                                               
COEURDALENE,ID SUNNY     62  40  44 VRB3      30.04F                  
DEER PARK      SUNNY     62  37  39 W3        30.05S                  
$$

WAZ029>033-182000-
SOUTHEAST WASHINGTON
  
CITY           SKY/WX    TMP DP  RH WIND       PRES   REMARKS
PULLMAN        SUNNY     63  36  36 VRB5      30.06F                  
LEWISTON, ID   MOSUNNY   66  38  35 VRB5      30.03F                  
WALLA WALLA    SUNNY     65  36  34 SW8       30.05F                  
PENDLETON, OR  SUNNY     66  36  32 N5        30.05F                  
$$